GSAT0217 (GALILEO 21)

Last updated on Sat Sep 05 2026 00:02:48 GMT+0000 (Coordinated Universal Time)

1 43057U 17079C 26247.12933333 .00000051 00000+0 00000+0 0 9995 2 43057 55.0546 219.3325 0004120 300.2373 59.7003 1.70473934 54333
UTC large
Height (km)
Speed (km/s)
/
Latitude / Longitude
Inclination (degrees)
Orbital Period (minutes)
Azimuth
Elevation
Range (km)
Doppler Factor

Next 0 passes for location: London (51.5072 / 0.1276)

No passes found over London.
GSAT0217 (GALILEO 21)